TimeEST,TemperatureF,Dew PointF,Humidity,Sea Level PressureIn,VisibilityMPH,Wind Direction,Wind SpeedMPH,Gust SpeedMPH,PrecipitationIn,Events,Conditions,WindDirDegrees,DateUTC
12:40 AM,34.0,27.0,75,29.98,10.0,NW,17.3,21.9,0.00,,Overcast,310,2013-11-19 05:40:00
12:54 AM,34.0,26.1,73,30.01,10.0,WNW,15.0,23.0,0.00,,Overcast,300,2013-11-19 05:54:00
1:54 AM,34.0,23.0,64,30.02,10.0,WNW,16.1,27.6,N/A,,Overcast,300,2013-11-19 06:54:00
2:54 AM,34.0,23.0,64,30.04,10.0,WNW,16.1,20.7,N/A,,Overcast,300,2013-11-19 07:54:00
3:54 AM,34.0,23.0,64,30.06,10.0,WNW,12.7,20.7,N/A,,Overcast,290,2013-11-19 08:54:00
4:54 AM,34.0,23.0,64,30.09,10.0,WNW,10.4,21.9,N/A,,Overcast,300,2013-11-19 09:54:00
5:10 AM,34.0,23.0,64,30.06,10.0,WNW,12.7,-,N/A,,Overcast,300,2013-11-19 10:10:00
5:32 AM,34.0,24.1,67,30.07,10.0,WNW,10.4,-,N/A,,Overcast,290,2013-11-19 10:32:00
5:54 AM,34.0,23.0,64,30.11,10.0,WNW,16.1,21.9,N/A,,Overcast,290,2013-11-19 10:54:00
6:54 AM,34.0,24.1,67,30.14,10.0,WNW,9.2,-,N/A,,Overcast,300,2013-11-19 11:54:00
7:51 AM,33.8,24.8,70,30.13,10.0,NW,15.0,20.7,N/A,,Overcast,320,2013-11-19 12:51:00
7:54 AM,34.0,24.1,67,30.17,10.0,NW,15.0,20.7,N/A,,Overcast,320,2013-11-19 12:54:00
8:54 AM,34.0,25.0,70,30.19,10.0,NW,10.4,-,N/A,,Overcast,310,2013-11-19 13:54:00
9:54 AM,35.1,24.1,64,30.21,10.0,NNW,15.0,26.5,N/A,,Overcast,330,2013-11-19 14:54:00
10:54 AM,36.0,23.0,59,30.22,10.0,NW,20.7,32.2,N/A,,Overcast,320,2013-11-19 15:54:00
11:54 AM,37.0,23.0,57,30.23,10.0,NNW,13.8,19.6,N/A,,Overcast,330,2013-11-19 16:54:00
12:54 PM,37.0,21.9,54,30.24,10.0,NW,12.7,19.6,N/A,,Overcast,310,2013-11-19 17:54:00
1:54 PM,37.9,23.0,55,30.25,10.0,NNW,8.1,-,N/A,,Overcast,330,2013-11-19 18:54:00
2:54 PM,37.0,23.0,57,30.26,10.0,NNW,10.4,-,N/A,,Overcast,340,2013-11-19 19:54:00
3:54 PM,35.1,21.0,57,30.28,10.0,NNW,8.1,-,N/A,,Scattered Clouds,330,2013-11-19 20:54:00
4:54 PM,33.1,21.0,61,30.30,10.0,NNW,5.8,-,N/A,,Clear,340,2013-11-19 21:54:00
5:54 PM,32.0,19.9,61,30.34,10.0,North,4.6,-,N/A,,Partly Cloudy,350,2013-11-19 22:54:00
6:54 PM,30.9,19.9,64,30.36,10.0,North,3.5,-,N/A,,Clear,350,2013-11-19 23:54:00
7:54 PM,30.0,19.9,66,30.38,10.0,WNW,3.5,-,N/A,,Clear,300,2013-11-20 00:54:00
8:54 PM,28.9,19.9,69,30.39,10.0,Calm,Calm,-,N/A,,Clear,0,2013-11-20 01:54:00
9:54 PM,28.9,19.9,69,30.42,10.0,North,3.5,-,N/A,,Clear,350,2013-11-20 02:54:00
10:54 PM,25.0,19.9,81,30.43,10.0,South,3.5,-,N/A,,Clear,180,2013-11-20 03:54:00